• In Deutschland
  • Länderverzeichnis
  • Für 7 Tage
  • Wassertemperatur
  • Satellitenkarten
  • Wetterkarte
  • Widgets
  • user-avatar
    Anmelden

    Stündliche Wetter Oelde

    Heute, 23 Oktober, Montag

    Zeit Temperatur Niederschläge Wind Luftdruck Luftfeuchtigkeit
    00:00 +7°C° 0,1 mm 5 m/S 752 mmHg 90%
    01:00 +8°C° 0 mm 4 m/S 752 mmHg 90%
    02:00 +8°C° 0,3 mm 5 m/S 752 mmHg 90%
    03:00 +8°C° 0,3 mm 5 m/S 752 mmHg 89%
    04:00 +8°C° 0,3 mm 5 m/S 752 mmHg 89%
    05:00 +8°C° 0,1 mm 5 m/S 752 mmHg 89%
    06:00 +7°C° 0,1 mm 5 m/S 752 mmHg 90%
    07:00 +8°C° 0 mm 4 m/S 752 mmHg 92%
    08:00 +8°C° 0,1 mm 5 m/S 752 mmHg 89%
    09:00 +9°C° 0,1 mm 5 m/S 752 mmHg 87%
    10:00 +9°C° 0,1 mm 6 m/S 753 mmHg 84%
    11:00 +9°C° 0,3 mm 6 m/S 753 mmHg 83%
    12:00 +10°C° 0,3 mm 6 m/S 753 mmHg 82%
    13:00 +10°C° 0,3 mm 6 m/S 753 mmHg 81%
    14:00 +10°C° 0,1 mm 6 m/S 753 mmHg 82%
    15:00 +10°C° 0,1 mm 5 m/S 754 mmHg 82%
    16:00 +10°C° 0,1 mm 5 m/S 754 mmHg 83%
    17:00 +10°C° 0 mm 5 m/S 754 mmHg 85%
    18:00 +11°C° 0 mm 4 m/S 755 mmHg 87%
    19:00 +11°C° 0 mm 4 m/S 755 mmHg 89%
    20:00 +10°C° 0 mm 3 m/S 755 mmHg 91%
    21:00 +10°C° 0 mm 3 m/S 756 mmHg 93%
    22:00 +9°C° 0 mm 3 m/S 756 mmHg 94%
    23:00 +9°C° 0 mm 3 m/S 756 mmHg 95%

    Morgen, 24 Oktober, Dienstag

    Zeit Temperatur Niederschläge Wind Luftdruck Luftfeuchtigkeit
    00:00 +9°C° 0 mm 2 m/S 756 mmHg 95%
    01:00 +9°C° 0 mm 2 m/S 757 mmHg 96%
    02:00 +9°C° 0 mm 2 m/S 757 mmHg 96%
    03:00 +10°C° 0 mm 2 m/S 757 mmHg 96%
    04:00 +10°C° 0 mm 2 m/S 757 mmHg 95%
    05:00 +10°C° 0 mm 2 m/S 757 mmHg 95%
    06:00 +10°C° 0 mm 2 m/S 757 mmHg 94%
    07:00 +12°C° 0 mm 2 m/S 757 mmHg 94%
    08:00 +11°C° 0 mm 3 m/S 757 mmHg 93%
    09:00 +12°C° 0 mm 3 m/S 757 mmHg 92%
    10:00 +12°C° 0 mm 3 m/S 757 mmHg 91%
    11:00 +13°C° 0,2 mm 3 m/S 757 mmHg 89%
    12:00 +14°C° 0,2 mm 4 m/S 757 mmHg 87%
    13:00 +15°C° 0,2 mm 4 m/S 757 mmHg 85%
    14:00 +15°C° 1,1 mm 4 m/S 756 mmHg 88%
    15:00 +15°C° 1,1 mm 4 m/S 756 mmHg 90%
    16:00 +14°C° 1,1 mm 4 m/S 756 mmHg 93%
    17:00 +14°C° 0,1 mm 4 m/S 756 mmHg 93%
    18:00 +15°C° 0,1 mm 4 m/S 756 mmHg 94%
    19:00 +15°C° 0,1 mm 4 m/S 756 mmHg 94%
    20:00 +15°C° 0 mm 4 m/S 756 mmHg 93%
    21:00 +15°C° 0 mm 4 m/S 756 mmHg 93%
    22:00 +15°C° 0 mm 5 m/S 756 mmHg 92%
    23:00 +15°C° 0 mm 5 m/S 756 mmHg 92%

    übermorgen, 25 Oktober, Mittwoch

    Zeit Temperatur Niederschläge Wind Luftdruck Luftfeuchtigkeit
    00:00 +14°C° 0 mm 5 m/S 756 mmHg 93%
    01:00 +14°C° 0 mm 5 m/S 756 mmHg 93%
    02:00 +14°C° 0 mm 5 m/S 756 mmHg 92%
    03:00 +14°C° 0 mm 5 m/S 756 mmHg 92%
    04:00 +14°C° 0 mm 5 m/S 756 mmHg 92%
    05:00 +14°C° 0 mm 5 m/S 756 mmHg 91%
    06:00 +14°C° 0 mm 5 m/S 756 mmHg 91%
    07:00 +14°C° 0 mm 5 m/S 756 mmHg 91%
    08:00 +15°C° 0 mm 6 m/S 756 mmHg 88%
    09:00 +15°C° 0 mm 6 m/S 756 mmHg 86%
    10:00 +15°C° 0 mm 6 m/S 756 mmHg 84%
    11:00 +15°C° 0,1 mm 6 m/S 756 mmHg 84%
    12:00 +15°C° 0,1 mm 5 m/S 757 mmHg 85%
    13:00 +15°C° 0,1 mm 5 m/S 757 mmHg 85%
    14:00 +15°C° 0,1 mm 5 m/S 757 mmHg 86%
    15:00 +15°C° 0,1 mm 4 m/S 757 mmHg 87%
    16:00 +15°C° 0,1 mm 4 m/S 758 mmHg 88%
    17:00 +14°C° 0,1 mm 4 m/S 758 mmHg 90%
    18:00 +14°C° 0,1 mm 3 m/S 758 mmHg 91%
    19:00 +14°C° 0,1 mm 3 m/S 759 mmHg 93%
    20:00 +13°C° 0 mm 3 m/S 759 mmHg 94%
    21:00 +14°C° 0 mm 2 m/S 759 mmHg 95%
    22:00 +14°C° 0 mm 2 m/S 759 mmHg 96%
    23:00 +13°C° 0 mm 2 m/S 759 mmHg 96%

    26 Oktober, Donnerstag

    Zeit Temperatur Niederschläge Wind Luftdruck Luftfeuchtigkeit
    00:00 +13°C° 0 mm 2 m/S 759 mmHg 97%
    01:00 +13°C° 0 mm 2 m/S 759 mmHg 97%
    02:00 +13°C° 0,1 mm 2 m/S 759 mmHg 96%
    03:00 +13°C° 0,1 mm 2 m/S 759 mmHg 95%
    04:00 +13°C° 0,1 mm 2 m/S 759 mmHg 95%
    05:00 +14°C° 0,1 mm 2 m/S 759 mmHg 94%
    06:00 +14°C° 0,1 mm 2 m/S 759 mmHg 94%
    07:00 +14°C° 0,1 mm 2 m/S 759 mmHg 93%
    08:00 +13°C° 0 mm 3 m/S 759 mmHg 91%
    09:00 +14°C° 0 mm 3 m/S 759 mmHg 88%
    10:00 +14°C° 0 mm 4 m/S 759 mmHg 86%
    11:00 +15°C° 0 mm 4 m/S 759 mmHg 82%
    12:00 +17°C° 0 mm 4 m/S 759 mmHg 79%
    13:00 +18°C° 0 mm 4 m/S 758 mmHg 76%
    14:00 +17°C° 0,1 mm 3 m/S 758 mmHg 77%
    15:00 +17°C° 0,1 mm 3 m/S 758 mmHg 78%
    16:00 +17°C° 0,1 mm 3 m/S 758 mmHg 79%
    17:00 +16°C° 0,1 mm 2 m/S 758 mmHg 82%
    18:00 +15°C° 0,1 mm 2 m/S 758 mmHg 84%
    19:00 +15°C° 0,1 mm 2 m/S 758 mmHg 87%
    20:00 +14°C° 0,1 mm 2 m/S 758 mmHg 88%
    21:00 +13°C° 0,1 mm 3 m/S 758 mmHg 89%
    22:00 +13°C° 0,1 mm 3 m/S 758 mmHg 91%
    23:00 +13°C° 0,1 mm 3 m/S 758 mmHg 92%

    27 Oktober, Freitag

    Zeit Temperatur Niederschläge Wind Luftdruck Luftfeuchtigkeit
    00:00 +13°C° 0,1 mm 3 m/S 758 mmHg 93%
    01:00 +12°C° 0,1 mm 3 m/S 758 mmHg 94%
    02:00 +12°C° 0,1 mm 3 m/S 757 mmHg 93%
    03:00 +12°C° 0,1 mm 3 m/S 757 mmHg 93%
    04:00 +12°C° 0,1 mm 3 m/S 757 mmHg 93%
    05:00 +11°C° 0 mm 3 m/S 757 mmHg 93%
    06:00 +11°C° 0 mm 3 m/S 757 mmHg 92%
    07:00 +10°C° 0 mm 3 m/S 757 mmHg 92%
    08:00 +11°C° 0 mm 4 m/S 757 mmHg 89%
    09:00 +11°C° 0 mm 4 m/S 757 mmHg 86%
    10:00 +10°C° 0 mm 5 m/S 757 mmHg 84%
    11:00 +12°C° 0,2 mm 5 m/S 757 mmHg 81%
    12:00 +11°C° 0,2 mm 6 m/S 757 mmHg 78%
    13:00 +13°C° 0,2 mm 6 m/S 757 mmHg 75%
    14:00 +11°C° 0,2 mm 6 m/S 758 mmHg 75%
    15:00 +12°C° 0,2 mm 5 m/S 758 mmHg 76%
    16:00 +12°C° 0,2 mm 5 m/S 758 mmHg 76%
    17:00 +11°C° 0 mm 4 m/S 758 mmHg 79%
    18:00 +10°C° 0 mm 4 m/S 759 mmHg 82%
    19:00 +8°C° 0 mm 4 m/S 759 mmHg 85%
    20:00 +7°C° 0 mm 4 m/S 759 mmHg 86%
    21:00 +7°C° 0 mm 4 m/S 760 mmHg 88%
    22:00 +7°C° 0 mm 4 m/S 760 mmHg 89%
    23:00 +7°C° 0 mm 4 m/S 760 mmHg 89%

    28 Oktober, Samstag

    Zeit Temperatur Niederschläge Wind Luftdruck Luftfeuchtigkeit
    00:00 +7°C° 0 mm 4 m/S 760 mmHg 88%
    01:00 +7°C° 0 mm 4 m/S 760 mmHg 87%
    02:00 +7°C° 0 mm 4 m/S 760 mmHg 86%
    03:00 +7°C° 0 mm 4 m/S 759 mmHg 86%
    04:00 +7°C° 0 mm 4 m/S 759 mmHg 85%
    05:00 +7°C° 0 mm 5 m/S 759 mmHg 85%
    06:00 +7°C° 0 mm 5 m/S 759 mmHg 86%
    07:00 +7°C° 0 mm 5 m/S 758 mmHg 86%
    08:00 +8°C° 0,1 mm 5 m/S 758 mmHg 86%
    09:00 +8°C° 0,1 mm 6 m/S 758 mmHg 85%
    10:00 +9°C° 0,1 mm 6 m/S 758 mmHg 84%
    11:00 +9°C° 0,1 mm 6 m/S 758 mmHg 84%
    12:00 +9°C° 0,1 mm 6 m/S 758 mmHg 83%
    13:00 +9°C° 0,1 mm 6 m/S 758 mmHg 82%
    14:00 +9°C° 0,1 mm 6 m/S 758 mmHg 83%
    15:00 +9°C° 0,1 mm 6 m/S 757 mmHg 84%
    16:00 +9°C° 0,1 mm 6 m/S 757 mmHg 85%
    17:00 +9°C° 0,1 mm 6 m/S 757 mmHg 86%
    18:00 +9°C° 0,1 mm 5 m/S 758 mmHg 87%
    19:00 +9°C° 0,1 mm 5 m/S 758 mmHg 88%
    20:00 +9°C° 0,1 mm 5 m/S 758 mmHg 89%
    21:00 +9°C° 0,1 mm 5 m/S 758 mmHg 90%
    22:00 +9°C° 0,1 mm 5 m/S 758 mmHg 91%
    23:00 +9°C° 0,1 mm 5 m/S 758 mmHg 92%

    29 Oktober, Sonntag

    Zeit Temperatur Niederschläge Wind Luftdruck Luftfeuchtigkeit
    00:00 +9°C° 0,1 mm 5 m/S 758 mmHg 92%
    01:00 +9°C° 0,1 mm 5 m/S 758 mmHg 92%
    02:00 +9°C° 0,1 mm 5 m/S 758 mmHg 92%
    03:00 +9°C° 0,1 mm 5 m/S 758 mmHg 93%
    04:00 +9°C° 0,1 mm 5 m/S 757 mmHg 93%
    05:00 +9°C° 0,1 mm 5 m/S 757 mmHg 92%
    06:00 +9°C° 0,1 mm 5 m/S 757 mmHg 91%
    07:00 +9°C° 0,1 mm 5 m/S 757 mmHg 91%
    08:00 +9°C° 0,1 mm 5 m/S 757 mmHg 87%
    09:00 +9°C° 0,1 mm 5 m/S 756 mmHg 84%
    10:00 +9°C° 0,1 mm 5 m/S 756 mmHg 80%
    11:00 +10°C° 0 mm 6 m/S 756 mmHg 79%
    12:00 +10°C° 0 mm 6 m/S 755 mmHg 79%
    13:00 +10°C° 0 mm 6 m/S 755 mmHg 78%
    14:00 +10°C° 0,1 mm 6 m/S 754 mmHg 80%
    15:00 +10°C° 0,1 mm 6 m/S 753 mmHg 81%
    16:00 +10°C° 0,1 mm 6 m/S 753 mmHg 83%
    17:00 +10°C° 0,2 mm 6 m/S 752 mmHg 85%
    18:00 +10°C° 0,2 mm 7 m/S 752 mmHg 87%
    19:00 +10°C° 0,2 mm 7 m/S 751 mmHg 89%
    20:00 +10°C° 0,4 mm 7 m/S 751 mmHg 88%
    21:00 +10°C° 0,4 mm 7 m/S 750 mmHg 87%
    22:00 +10°C° 0,4 mm 7 m/S 750 mmHg 86%
    23:00 +10°C° 0,4 mm 7 m/S 749 mmHg 84%
    Mehr zeigen